Date String (YYYY-MM-DD hh:mm:ss) UTC,Instrument flags,Ambient pressure (hPa),Sample flow (lpm),Bypass flow (lpm),Sample temperature (°C),Ambient temperature (°C),ASC tube jacket temperature (°C),LED temperature (°C),Box temperature (°C),Sample RH (%),Span deviation,Mass concentration (μg/m³),Mass concentration (μg/m³),Mass concentration (μg/m³)
DateTimeUTC,F1_M11,P_M11,Q1_M11,Q2_M11,T1_M11,T2_M11,T3_M11,T4_M11,T5_M11,U1_M11,ZSPAN_M11,X0_M11,X2_M11,X1_M11
2022-07-31 10:00:00,,0829.0,5.00,0.00,29.6,28.1,00.0,38.5,31.5,22.2,0000.0,0013.78,0005.53,0004.96
2022-07-31 10:01:00,,0829.0,5.00,0.00,29.7,28.2,00.0,38.5,31.5,22.1,0000.0,0013.52,0005.54,0004.96
2022-07-31 10:02:00,,0829.0,4.99,0.00,29.7,28.3,00.0,38.5,31.6,22.0,0000.0,0012.95,0005.54,0004.98
2022-07-31 10:03:00,,0829.0,5.01,0.00,29.7,28.4,00.0,38.5,31.6,21.9,0000.0,0013.23,0005.54,0004.99
2022-07-31 10:04:00,,0828.9,5.00,0.00,29.7,28.5,00.0,38.5,31.6,21.8,0000.0,0012.27,0005.56,0005.00
2022-07-31 10:05:00,,0828.9,5.01,0.00,29.7,28.5,00.0,38.5,31.6,21.7,0000.0,0011.78,0005.56,0005.00
2022-07-31 10:06:00,,0829.0,5.00,0.00,29.7,28.6,00.0,38.5,31.7,21.8,0000.0,0011.70,0005.59,0005.02
2022-07-31 10:07:00,,0829.0,5.01,0.00,29.8,28.7,00.0,38.5,31.7,21.7,0000.0,0011.25,0005.55,0005.01
2022-07-31 10:08:00,,0829.0,5.00,0.00,29.8,28.7,00.0,38.6,31.7,21.6,0000.0,0010.23,0005.54,0005.02
2022-07-31 10:09:00,,0829.0,4.99,0.00,29.8,28.7,00.0,38.6,31.8,21.7,0000.0,0010.38,0005.54,0005.02
2022-07-31 10:10:00,,0829.0,5.00,0.00,29.8,28.8,00.0,38.6,31.8,21.6,0000.0,0010.59,0005.53,0005.02
2022-07-31 10:11:00,,0829.0,4.99,0.00,29.8,28.8,00.0,38.6,31.7,21.5,0000.0,0010.24,0005.54,0005.02
2022-07-31 10:12:00,,0829.0,5.00,0.00,29.8,28.9,00.0,38.6,31.8,21.5,0000.0,0010.23,0005.52,0005.03
2022-07-31 10:13:00,,0829.0,5.01,0.00,29.9,28.9,00.0,38.6,31.8,21.5,0000.0,0009.93,0005.52,0005.04
2022-07-31 10:14:00,,0829.0,4.99,0.00,29.9,28.9,00.0,38.7,31.9,21.9,0000.0,0009.51,0005.51,0005.05
2022-07-31 10:15:00,,0829.0,5.00,0.00,29.9,28.6,00.0,38.6,31.8,22.2,0000.0,0009.46,0005.50,0005.06
2022-07-31 10:16:00,,0829.0,5.01,0.00,29.8,27.8,00.0,38.6,31.6,22.5,0000.0,0009.64,0005.58,0005.07
2022-07-31 10:17:00,,0829.0,4.99,0.00,29.8,27.5,00.0,38.6,31.5,22.6,0000.0,0009.57,0005.62,0005.08
2022-07-31 10:18:00,,0829.0,5.00,0.00,29.7,27.5,00.0,38.5,31.4,22.6,0000.0,0009.74,0005.67,0005.10
2022-07-31 10:19:00,,0828.9,4.99,0.00,29.7,27.6,00.0,38.5,31.4,22.5,0000.0,0009.70,0005.67,0005.11
2022-07-31 10:20:00,,0829.0,5.00,0.00,29.6,27.7,00.0,38.5,31.4,22.3,0000.0,0009.46,0005.67,0005.11
2022-07-31 10:21:00,,0829.0,5.00,0.00,29.6,27.8,00.0,38.5,31.5,22.4,0000.0,0009.25,0005.69,0005.12
2022-07-31 10:22:00,,0829.0,5.00,0.00,29.6,27.9,00.0,38.5,31.5,22.4,0000.0,0009.05,0005.70,0005.13
2022-07-31 10:23:00,,0829.0,5.00,0.00,29.6,28.0,00.0,38.5,31.5,22.4,0000.0,0009.06,0005.73,0005.15
2022-07-31 10:24:00,,0829.0,5.00,0.00,29.6,28.1,00.0,38.5,31.5,22.3,0000.0,0009.48,0005.76,0005.16
2022-07-31 10:25:00,,0829.0,5.01,0.00,29.6,28.2,00.0,38.5,31.5,22.2,0000.0,0009.61,0005.75,0005.15
2022-07-31 10:26:00,,0829.0,5.01,0.00,29.7,28.3,00.0,38.5,31.6,22.3,0000.0,0009.68,0005.77,0005.15
2022-07-31 10:27:00,,0829.0,4.98,0.00,29.7,28.4,00.0,38.5,31.6,22.2,0000.0,0009.57,0005.71,0005.15
2022-07-31 10:28:00,,0828.9,5.01,0.00,29.7,28.5,00.0,38.5,31.6,22.1,0000.0,0009.66,0005.65,0005.14
2022-07-31 10:29:00,,0828.9,5.01,0.00,29.7,28.5,00.0,38.5,31.6,22.1,0000.0,0009.98,0005.63,0005.12
2022-07-31 10:30:00,,0828.9,5.00,0.00,29.7,28.6,00.0,38.5,31.7,22.1,0000.0,0009.99,0005.62,0005.10
2022-07-31 10:31:00,,0829.0,5.01,0.00,29.7,28.6,00.0,38.5,31.7,22.0,0000.0,0010.06,0005.60,0005.09
2022-07-31 10:32:00,,0829.0,4.99,0.00,29.8,28.7,00.0,38.5,31.7,21.8,0000.0,0010.21,0005.56,0005.07
2022-07-31 10:33:00,,0828.9,5.00,0.00,29.8,28.7,00.0,38.6,31.7,21.8,0000.0,0010.11,0005.52,0005.06
2022-07-31 10:34:00,,0829.0,5.00,0.00,29.8,28.8,00.0,38.6,31.7,21.8,0000.0,0009.96,0005.47,0005.04
2022-07-31 10:35:00,,0829.0,4.99,0.00,29.8,28.8,00.0,38.6,31.7,21.5,0000.0,0009.52,0005.42,0005.01
2022-07-31 10:36:00,,0829.0,5.00,0.00,29.8,28.8,00.0,38.6,31.8,21.4,0000.0,0009.36,0005.38,0005.00
2022-07-31 10:37:00,,0828.9,5.01,0.00,29.9,28.9,00.0,38.6,31.8,21.5,0000.0,0009.25,0005.35,0004.99
2022-07-31 10:38:00,,0829.0,4.99,0.00,29.9,28.9,00.0,38.6,31.9,21.3,0000.0,0009.12,0005.31,0004.98
2022-07-31 10:39:00,,0829.0,5.01,0.00,29.9,28.9,00.0,38.7,31.9,21.4,0000.0,0008.86,0005.29,0004.97
2022-07-31 10:40:00,,0828.9,4.98,0.00,29.9,28.9,00.0,38.7,31.9,21.2,0000.0,0008.30,0005.26,0004.97
2022-07-31 10:41:00,,0829.0,5.01,0.00,29.9,28.2,00.0,38.6,31.7,21.3,0000.0,0008.29,0005.28,0004.98
2022-07-31 10:42:00,,0828.9,5.00,0.00,29.9,27.6,00.0,38.6,31.6,21.4,0000.0,0008.05,0005.25,0004.97
2022-07-31 10:43:00,,0829.0,4.99,0.00,29.8,27.5,00.0,38.6,31.5,21.4,0000.0,0007.71,0005.25,0004.97
2022-07-31 10:44:00,,0829.0,5.00,0.00,29.7,27.5,00.0,38.6,31.4,21.6,0000.0,0007.86,0005.26,0004.97
2022-07-31 10:45:00,,0829.0,5.00,0.00,29.7,27.6,00.0,38.5,31.4,21.6,0000.0,0007.84,0005.25,0004.96
2022-07-31 10:46:00,,0829.0,5.00,0.00,29.7,27.8,00.0,38.5,31.4,21.5,0000.0,0007.83,0005.26,0004.95
2022-07-31 10:47:00,,0829.0,5.00,0.00,29.7,27.9,00.0,38.5,31.5,21.5,0000.0,0007.88,0005.27,0004.95
2022-07-31 10:48:00,,0829.0,5.00,0.00,29.7,28.0,00.0,38.5,31.5,21.6,0000.0,0007.94,0005.25,0004.93
2022-07-31 10:49:00,,0829.1,5.01,0.00,29.7,28.1,00.0,38.5,31.5,21.6,0000.0,0008.39,0005.25,0004.92
2022-07-31 10:50:00,,0829.1,5.01,0.00,29.7,28.2,00.0,38.5,31.5,21.6,0000.0,0008.72,0005.25,0004.92
2022-07-31 10:51:00,,0829.0,4.99,0.00,29.7,28.3,00.0,38.5,31.6,21.6,0000.0,0009.41,0005.26,0004.92
2022-07-31 10:52:00,,0829.1,4.99,0.00,29.7,28.4,00.0,38.5,31.6,21.6,0000.0,0009.32,0005.21,0004.91
2022-07-31 10:53:00,,0829.0,5.00,0.00,29.7,28.5,00.0,38.5,31.6,21.6,0000.0,0009.60,0005.20,0004.89
2022-07-31 10:54:00,,0829.0,4.99,0.00,29.7,28.6,00.0,38.5,31.7,21.6,0000.0,0009.80,0005.20,0004.89
2022-07-31 10:55:00,,0829.0,5.00,0.00,29.7,28.6,00.0,38.5,31.7,21.5,0000.0,0009.69,0005.20,0004.89
2022-07-31 10:56:00,,0829.1,5.00,0.00,29.8,28.7,00.0,38.6,31.7,21.5,0000.0,0009.69,0005.19,0004.89
2022-07-31 10:57:00,,0829.1,5.01,0.00,29.8,28.7,00.0,38.6,31.7,21.4,0000.0,0009.71,0005.18,0004.88
2022-07-31 10:58:00,,0829.0,4.99,0.00,29.8,28.8,00.0,38.6,31.7,21.5,0000.0,0009.73,0005.18,0004.88
2022-07-31 10:59:00,,0829.0,5.00,0.00,29.8,28.8,00.0,38.6,31.8,21.4,0000.0,0009.70,0005.20,0004.88
